Location: Newark
(49.8969°N, 3.3422°E)
Time: 21:08:15
(UTC+00:00)

Explorer 7 - Pass Details

Date: 31 January 2020
Orbit: 485 x 679 km, 50.3° (Epoch: 23 February)

Event Time Altitude Azimuth Distance (km) Brightness Sun altitude
Rises 21:24:02 0° 249° (WSW) 2,602 - -44.9°
Reaches altitude 10° 21:26:16 10° 247° (WSW) 1,699 - -45.2°
Maximum altitude 21:30:04 72° 164° (SSE) 518 - -45.7°
Drops below altitude 10° 21:33:48 10° 79° (E) 1,670 - -46.2°
Sets 21:35:58 0° 78° (ENE) 2,553 - -46.5°
